Terminal Aerodrome Forecast
Issued by NWS Pueblo, CO

Home | Current Version | Previous Version | Text Only | Print | Product List | Glossary On
Versions: 1 2 3 4 5 6 7 8 9 10 11 12 13 14 15 16 17 18 19 20 21 22 23 24 25 26 27 28 29 30 31 32 33 34 35 36 37 38 39 40 41 42 43 44
000
FTUS45 KPUB 191727
TAFALS
TAF
KALS 191727Z 1918/2018 35010KT P6SM FEW060 SCT150
     FM192000 30012KT P6SM VCSH SCT080 BKN140
     FM200200 33008KT P6SM SCT100 BKN150
     FM200600 VRB06KT P6SM BKN150=

USA.gov is the U.S. government's official web portal to all federal, state and local government web resources and services.